When you browse on this site, cookies collect data to enhance your experience and personalize the content and advertising you see.
Visit our Privacy Policy to learn more. By continuing to use the site, you agree to this use of cookies and data.
  • In Hungary
  • List of Countries
  • For 7 days
  • Water Temperature
  • Weather Map
  • News
  • Weather Widgets
  • user-avatar
    Login

    Hourly Weather Yopal

    Today, 15 November, Friday

    Time Temperature Precipitation Wind Pressure Humidity
    00:00 +25°C° 0.1 mm 1 mps 729 mmHg 88%
    01:00 +25°C° 0.1 mm 1 mps 728 mmHg 88%
    02:00 +25°C° 0 mm 1 mps 728 mmHg 87%
    03:00 +24°C° 0 mm 1 mps 728 mmHg 87%
    04:00 +24°C° 0 mm 1 mps 728 mmHg 87%
    05:00 +25°C° 0.1 mm 1 mps 729 mmHg 86%
    06:00 +25°C° 0.1 mm 1 mps 729 mmHg 85%
    07:00 +24°C° 0.1 mm 0 mps 730 mmHg 84%
    08:00 +28°C° 0.2 mm 1 mps 730 mmHg 79%
    09:00 +29°C° 0.2 mm 1 mps 730 mmHg 75%
    10:00 +31°C° 0.2 mm 2 mps 731 mmHg 70%
    11:00 +31°C° 0.4 mm 2 mps 730 mmHg 68%
    12:00 +32°C° 0.4 mm 2 mps 728 mmHg 66%
    13:00 +32°C° 0.4 mm 2 mps 727 mmHg 64%
    14:00 +32°C° 0.9 mm 2 mps 727 mmHg 69%
    15:00 +31°C° 0.9 mm 1 mps 726 mmHg 74%
    16:00 +31°C° 0.9 mm 1 mps 726 mmHg 79%
    17:00 +29°C° 0.2 mm 1 mps 727 mmHg 82%
    18:00 +28°C° 0.2 mm 1 mps 727 mmHg 85%
    19:00 +26°C° 0.2 mm 1 mps 728 mmHg 89%
    20:00 +26°C° 0.3 mm 1 mps 728 mmHg 89%
    21:00 +26°C° 0.3 mm 1 mps 729 mmHg 89%
    22:00 +25°C° 0.3 mm 1 mps 729 mmHg 90%
    23:00 +25°C° 0.8 mm 1 mps 729 mmHg 90%

    Tomorrow, 16 November, Saturday

    Time Temperature Precipitation Wind Pressure Humidity
    00:00 +25°C° 0.8 mm 1 mps 728 mmHg 90%
    01:00 +24°C° 0.8 mm 1 mps 728 mmHg 91%
    02:00 +24°C° 0.5 mm 1 mps 727 mmHg 90%
    03:00 +24°C° 0.5 mm 1 mps 727 mmHg 90%
    04:00 +24°C° 0.5 mm 1 mps 727 mmHg 89%
    05:00 +24°C° 0.1 mm 1 mps 728 mmHg 87%
    06:00 +25°C° 0.1 mm 1 mps 728 mmHg 86%
    07:00 +26°C° 0.1 mm 1 mps 728 mmHg 84%
    08:00 +27°C° 0 mm 1 mps 729 mmHg 78%
    09:00 +29°C° 0 mm 2 mps 729 mmHg 73%
    10:00 +31°C° 0 mm 2 mps 729 mmHg 67%
    11:00 +31°C° 0.2 mm 2 mps 728 mmHg 66%
    12:00 +32°C° 0.2 mm 2 mps 727 mmHg 66%
    13:00 +32°C° 0.2 mm 2 mps 726 mmHg 65%
    14:00 +32°C° 0.8 mm 1 mps 725 mmHg 69%
    15:00 +31°C° 0.8 mm 1 mps 725 mmHg 74%
    16:00 +28°C° 0.8 mm 0 mps 725 mmHg 79%
    17:00 +27°C° 0.8 mm 0 mps 725 mmHg 82%
    18:00 +26°C° 0.8 mm 0 mps 726 mmHg 86%
    19:00 +24°C° 0.8 mm 0 mps 726 mmHg 90%
    20:00 +26°C° 2.7 mm 1 mps 727 mmHg 91%
    21:00 +25°C° 2.7 mm 1 mps 727 mmHg 92%
    22:00 +25°C° 2.7 mm 1 mps 728 mmHg 94%
    23:00 +25°C° 2.9 mm 1 mps 728 mmHg 94%

    Day after tomorrow, 17 November, Sunday

    Time Temperature Precipitation Wind Pressure Humidity
    00:00 +25°C° 2.9 mm 1 mps 727 mmHg 94%
    01:00 +24°C° 2.9 mm 1 mps 727 mmHg 94%
    02:00 +24°C° 2.2 mm 1 mps 727 mmHg 93%
    03:00 +24°C° 2.2 mm 1 mps 727 mmHg 93%
    04:00 +23°C° 2.2 mm 1 mps 727 mmHg 93%
    05:00 +24°C° 0.6 mm 1 mps 727 mmHg 92%
    06:00 +25°C° 0.6 mm 1 mps 728 mmHg 91%
    07:00 +23°C° 0.6 mm 0 mps 728 mmHg 89%
    08:00 +27°C° 0.1 mm 1 mps 728 mmHg 84%
    09:00 +28°C° 0.1 mm 1 mps 728 mmHg 79%
    10:00 +30°C° 0.1 mm 1 mps 728 mmHg 74%
    11:00 +30°C° 0.7 mm 1 mps 727 mmHg 76%
    12:00 +30°C° 0.7 mm 1 mps 727 mmHg 77%
    13:00 +30°C° 0.7 mm 1 mps 726 mmHg 78%
    14:00 +30°C° 1.5 mm 1 mps 725 mmHg 81%
    15:00 +27°C° 1.5 mm 0 mps 725 mmHg 83%
    16:00 +27°C° 1.5 mm 0 mps 725 mmHg 85%
    17:00 +26°C° 0.6 mm 0 mps 725 mmHg 87%
    18:00 +25°C° 0.6 mm 0 mps 726 mmHg 89%
    19:00 +23°C° 0.6 mm 0 mps 727 mmHg 91%
    20:00 +25°C° 0.9 mm 1 mps 727 mmHg 92%
    21:00 +25°C° 0.9 mm 1 mps 728 mmHg 92%
    22:00 +25°C° 0.9 mm 1 mps 728 mmHg 93%
    23:00 +24°C° 1.9 mm 1 mps 728 mmHg 93%

    18 November, Monday

    Time Temperature Precipitation Wind Pressure Humidity
    00:00 +24°C° 1.9 mm 1 mps 727 mmHg 93%
    01:00 +24°C° 1.9 mm 1 mps 727 mmHg 93%
    02:00 +23°C° 0.5 mm 1 mps 727 mmHg 93%
    03:00 +23°C° 0.5 mm 1 mps 727 mmHg 92%
    04:00 +23°C° 0.5 mm 1 mps 727 mmHg 92%
    05:00 +24°C° 0.3 mm 1 mps 728 mmHg 91%
    06:00 +24°C° 0.3 mm 1 mps 728 mmHg 90%
    07:00 +25°C° 0.3 mm 1 mps 729 mmHg 89%
    08:00 +26°C° 0.1 mm 1 mps 729 mmHg 84%
    09:00 +28°C° 0.1 mm 1 mps 729 mmHg 78%
    10:00 +30°C° 0.1 mm 1 mps 729 mmHg 73%
    11:00 +30°C° 0.8 mm 1 mps 728 mmHg 75%
    12:00 +30°C° 0.8 mm 2 mps 728 mmHg 77%
    13:00 +30°C° 0.8 mm 2 mps 727 mmHg 79%
    14:00 +30°C° 0.3 mm 1 mps 726 mmHg 80%
    15:00 +30°C° 0.3 mm 1 mps 726 mmHg 81%
    16:00 +30°C° 0.3 mm 1 mps 726 mmHg 81%
    17:00 +28°C° 0.9 mm 1 mps 726 mmHg 85%
    18:00 +27°C° 0.9 mm 1 mps 727 mmHg 88%
    19:00 +25°C° 0.9 mm 1 mps 727 mmHg 92%
    20:00 +25°C° 2.2 mm 1 mps 728 mmHg 93%
    21:00 +25°C° 2.2 mm 1 mps 728 mmHg 94%
    22:00 +24°C° 2.2 mm 1 mps 729 mmHg 95%
    23:00 +24°C° 0.8 mm 1 mps 729 mmHg 94%

    19 November, Tuesday

    Time Temperature Precipitation Wind Pressure Humidity
    00:00 +24°C° 0.8 mm 1 mps 728 mmHg 94%
    01:00 +24°C° 0.8 mm 1 mps 728 mmHg 94%
    02:00 +24°C° 0.1 mm 1 mps 728 mmHg 93%
    03:00 +24°C° 0.1 mm 1 mps 728 mmHg 93%
    04:00 +24°C° 0.1 mm 1 mps 728 mmHg 93%
    05:00 +24°C° 0.1 mm 1 mps 729 mmHg 92%
    06:00 +24°C° 0.1 mm 1 mps 729 mmHg 91%
    07:00 +23°C° 0.1 mm 0 mps 730 mmHg 90%
    08:00 +26°C° 0.1 mm 1 mps 730 mmHg 85%
    09:00 +28°C° 0.1 mm 1 mps 730 mmHg 80%
    10:00 +29°C° 0.1 mm 2 mps 730 mmHg 75%
    11:00 +30°C° 0.6 mm 2 mps 729 mmHg 76%
    12:00 +30°C° 0.6 mm 2 mps 728 mmHg 77%
    13:00 +30°C° 0.6 mm 2 mps 727 mmHg 78%
    14:00 +30°C° 0.7 mm 2 mps 727 mmHg 80%
    15:00 +30°C° 0.7 mm 1 mps 727 mmHg 82%
    16:00 +30°C° 0.7 mm 1 mps 727 mmHg 84%
    17:00 +28°C° 0.1 mm 1 mps 727 mmHg 86%
    18:00 +27°C° 0.1 mm 1 mps 728 mmHg 88%
    19:00 +25°C° 0.1 mm 1 mps 729 mmHg 90%
    20:00 +25°C° 0.1 mm 1 mps 729 mmHg 90%
    21:00 +24°C° 0.1 mm 1 mps 729 mmHg 90%
    22:00 +24°C° 0.1 mm 1 mps 729 mmHg 91%
    23:00 +24°C° 0 mm 1 mps 729 mmHg 91%

    20 November, Wednesday

    Time Temperature Precipitation Wind Pressure Humidity
    00:00 +24°C° 0 mm 1 mps 729 mmHg 90%
    01:00 +24°C° 0 mm 1 mps 729 mmHg 90%
    02:00 +24°C° 0 mm 1 mps 729 mmHg 90%
    03:00 +23°C° 0 mm 1 mps 728 mmHg 90%
    04:00 +23°C° 0 mm 1 mps 728 mmHg 90%
    05:00 +24°C° 0.1 mm 1 mps 729 mmHg 89%
    06:00 +25°C° 0.1 mm 1 mps 729 mmHg 88%
    07:00 +25°C° 0.1 mm 1 mps 730 mmHg 86%
    08:00 +27°C° 0.1 mm 1 mps 730 mmHg 82%
    09:00 +28°C° 0.1 mm 1 mps 730 mmHg 77%
    10:00 +30°C° 0.1 mm 2 mps 730 mmHg 72%
    11:00 +30°C° 0.3 mm 2 mps 730 mmHg 70%
    12:00 +31°C° 0.3 mm 2 mps 729 mmHg 67%
    13:00 +31°C° 0.3 mm 2 mps 728 mmHg 65%
    14:00 +31°C° 0.2 mm 2 mps 728 mmHg 68%
    15:00 +31°C° 0.2 mm 1 mps 727 mmHg 72%
    16:00 +30°C° 0.2 mm 1 mps 727 mmHg 76%
    17:00 +29°C° 0.1 mm 1 mps 727 mmHg 79%
    18:00 +27°C° 0.1 mm 1 mps 728 mmHg 82%
    19:00 +25°C° 0.1 mm 1 mps 728 mmHg 85%
    20:00 +25°C° 0 mm 1 mps 729 mmHg 86%
    21:00 +25°C° 0 mm 1 mps 729 mmHg 86%
    22:00 +24°C° 0 mm 1 mps 729 mmHg 86%
    23:00 +24°C° 0.1 mm 1 mps 729 mmHg 87%
    Show more